DUZEAR1 KMFE-KHBV

Flight info

Callsign DUZEAR1
Flight time 0h 27m
Altitude 14000
Route KMFE/18 N0277F140 DCT REEMS DCT LIPBI DCT KATHY DCT OREYI DCT KHBV/13
Aircraft PC12/L-SDE2FGIRWY/SB1

Departure

Time 2026-04-20 21:34
Airport McAllen Miller International Airport (KMFE)

Arrival

Time 2026-04-20 22:02
Airport Jim Hogg County Airport (KHBV)
Time Latitude Longitude Altitude Speed Heading
2026-04-20 21:17 26.18119 -98.23474 97 ft 0 kts
2026-04-20 21:31 26.18132 -98.23491 97 ft 9 kts 268°
2026-04-20 21:32 26.18104 -98.23550 98 ft 14 kts 250°
2026-04-20 21:32 26.17973 -98.23592 99 ft 28 kts 190°
2026-04-20 21:32 26.17738 -98.23632 102 ft 36 kts 188°
2026-04-20 21:32 26.17479 -98.23675 104 ft 28 kts 188°
2026-04-20 21:33 26.17418 -98.23686 105 ft 7 kts 191°
2026-04-20 21:33 26.17309 -98.23711 108 ft 24 kts 214°
2026-04-20 21:33 26.17403 -98.23822 108 ft 36 kts 320°
2026-04-20 21:33 26.17782 -98.24152 159 ft 94 kts 331°
2026-04-20 21:34 26.18584 -98.24183 348 ft 140 kts
2026-04-20 21:34 26.19659 -98.24135 852 ft 161 kts
2026-04-20 21:34 26.20824 -98.24242 1401 ft 173 kts 338°
2026-04-20 21:34 26.21788 -98.24889 2381 ft 155 kts 325°
2026-04-20 21:35 26.22621 -98.25459 2933 ft 127 kts 328°
2026-04-20 21:35 26.23478 -98.26020 3188 ft 153 kts 328°
2026-04-20 21:35 26.24383 -98.26607 4064 ft 151 kts 328°
2026-04-20 21:35 26.25311 -98.27209 4822 ft 157 kts 330°
2026-04-20 21:36 26.26267 -98.27830 5586 ft 161 kts 330°
2026-04-20 21:36 26.27245 -98.28466 6353 ft 165 kts 329°
2026-04-20 21:36 26.28248 -98.29118 7121 ft 168 kts 330°
2026-04-20 21:36 26.29264 -98.29780 7913 ft 171 kts 329°
2026-04-20 21:37 26.30302 -98.30455 8680 ft 174 kts 329°
2026-04-20 21:37 26.31353 -98.31138 9461 ft 176 kts 329°
2026-04-20 21:37 26.32401 -98.31820 10222 ft 177 kts 329°
2026-04-20 21:37 26.33479 -98.32522 11039 ft 177 kts 328°
2026-04-20 21:38 26.34545 -98.33216 11849 ft 178 kts 327°
2026-04-20 21:38 26.35616 -98.33914 12648 ft 178 kts 327°
2026-04-20 21:38 26.36674 -98.34603 13408 ft 181 kts 326°
2026-04-20 21:38 26.37795 -98.35307 13875 ft 186 kts 333°
2026-04-20 21:39 26.39121 -98.35829 13998 ft 221 kts 339°
2026-04-20 21:39 26.40666 -98.36425 14003 ft 247 kts 338°
2026-04-20 21:39 26.42333 -98.37078 13997 ft 259 kts 338°
2026-04-20 21:39 26.44056 -98.37753 13990 ft 265 kts 338°
2026-04-20 21:40 26.45796 -98.38435 13989 ft 267 kts 338°
2026-04-20 21:40 26.47556 -98.39125 13982 ft 268 kts 338°
2026-04-20 21:40 26.49315 -98.39817 13983 ft 268 kts 338°
2026-04-20 21:40 26.51075 -98.40508 13981 ft 269 kts 338°
2026-04-20 21:41 26.52837 -98.41198 13980 ft 268 kts 338°
2026-04-20 21:41 26.54600 -98.41891 13982 ft 269 kts 338°
2026-04-20 21:41 26.56362 -98.42584 13981 ft 268 kts 338°
2026-04-20 21:41 26.58121 -98.43274 13982 ft 268 kts 338°
2026-04-20 21:42 26.59884 -98.43967 13981 ft 268 kts 338°
2026-04-20 21:42 26.61642 -98.44659 13981 ft 268 kts 338°
2026-04-20 21:42 26.63398 -98.45351 13981 ft 268 kts 338°
2026-04-20 21:42 26.65155 -98.46044 13981 ft 268 kts 338°
2026-04-20 21:43 26.66909 -98.46732 13981 ft 268 kts 338°
2026-04-20 21:43 26.68676 -98.47427 13980 ft 269 kts 338°
2026-04-20 21:43 26.70439 -98.48122 13980 ft 268 kts 338°
2026-04-20 21:43 26.72200 -98.48816 13982 ft 268 kts 338°
2026-04-20 21:44 26.73961 -98.49511 13981 ft 268 kts 338°
2026-04-20 21:44 26.75718 -98.50204 13982 ft 268 kts 338°
2026-04-20 21:44 26.77479 -98.50898 13982 ft 268 kts 338°
2026-04-20 21:44 26.79241 -98.51594 13982 ft 268 kts 338°
2026-04-20 21:45 26.80998 -98.52287 13980 ft 268 kts 338°
2026-04-20 21:45 26.82753 -98.52980 13982 ft 268 kts 338°
2026-04-20 21:45 26.84510 -98.53673 13981 ft 268 kts 338°
2026-04-20 21:45 26.86267 -98.54368 13981 ft 268 kts 338°
2026-04-20 21:46 26.88024 -98.55062 13981 ft 268 kts 338°
2026-04-20 21:46 26.89777 -98.55755 13981 ft 268 kts 338°
2026-04-20 21:46 26.91540 -98.56455 13982 ft 268 kts 338°
2026-04-20 21:46 26.93300 -98.57150 13982 ft 268 kts 338°
2026-04-20 21:47 26.95057 -98.57841 13982 ft 268 kts 338°
2026-04-20 21:47 26.96815 -98.58539 13983 ft 268 kts 338°
2026-04-20 21:47 26.98589 -98.59183 13980 ft 269 kts 345°
2026-04-20 21:47 27.00439 -98.59520 13983 ft 270 kts 348°
2026-04-20 21:48 27.02292 -98.59858 13983 ft 270 kts 347°
2026-04-20 21:48 27.04143 -98.60208 13984 ft 270 kts 348°
2026-04-20 21:48 27.05998 -98.60554 13986 ft 270 kts 348°
2026-04-20 21:48 27.07852 -98.60895 13986 ft 270 kts 348°
2026-04-20 21:49 27.09706 -98.61239 13986 ft 270 kts 348°
2026-04-20 21:49 27.11561 -98.61583 13986 ft 270 kts 348°
2026-04-20 21:49 27.13416 -98.61926 13985 ft 271 kts 348°
2026-04-20 21:49 27.15284 -98.62272 13850 ft 275 kts 348°
2026-04-20 21:50 27.17195 -98.62629 13502 ft 281 kts 348°
2026-04-20 21:50 27.19134 -98.62988 13130 ft 284 kts 348°
2026-04-20 21:50 27.21081 -98.63347 12752 ft 283 kts 348°
2026-04-20 21:50 27.23034 -98.63711 12375 ft 285 kts 348°
2026-04-20 21:51 27.24991 -98.64076 11991 ft 285 kts 348°
2026-04-20 21:51 27.26947 -98.64437 11616 ft 283 kts 349°
2026-04-20 21:51 27.28909 -98.64723 11237 ft 285 kts 351°
2026-04-20 21:51 27.30879 -98.65024 10864 ft 286 kts 351°
2026-04-20 21:52 27.32840 -98.65323 10492 ft 284 kts 351°
2026-04-20 21:52 27.34811 -98.65619 10119 ft 287 kts 352°
2026-04-20 21:52 27.36788 -98.65917 9739 ft 286 kts 352°
2026-04-20 21:52 27.38741 -98.66211 9377 ft 280 kts 352°
2026-04-20 21:53 27.40693 -98.66505 8994 ft 284 kts 352°
2026-04-20 21:53 27.42650 -98.66798 8611 ft 284 kts 353°
2026-04-20 21:53 27.44565 -98.67087 8275 ft 259 kts 353°
2026-04-20 21:53 27.46323 -98.67353 8247 ft 261 kts 353°
2026-04-20 21:54 27.48189 -98.67633 7773 ft 279 kts 353°
2026-04-20 21:54 27.50057 -98.68255 7240 ft 282 kts 333°
2026-04-20 21:54 27.51681 -98.69462 6846 ft 278 kts 318°
2026-04-20 21:54 27.52916 -98.71058 6520 ft 269 kts 302°
2026-04-20 21:55 27.53735 -98.72947 6171 ft 266 kts 286°
2026-04-20 21:55 27.54081 -98.74940 5851 ft 255 kts 271°
2026-04-20 21:55 27.53981 -98.76907 5544 ft 251 kts 257°
2026-04-20 21:55 27.53453 -98.78789 5207 ft 255 kts 242°
2026-04-20 21:56 27.52526 -98.80473 4856 ft 250 kts 228°
2026-04-20 21:56 27.51423 -98.81982 4535 ft 251 kts 226°
2026-04-20 21:56 27.50129 -98.83236 4205 ft 247 kts 209°
2026-04-20 21:56 27.48561 -98.84039 3873 ft 243 kts 193°
2026-04-20 21:57 27.46931 -98.84326 3555 ft 240 kts 178°
2026-04-20 21:57 27.45300 -98.84122 3238 ft 229 kts 163°
2026-04-20 21:57 27.43994 -98.83573 2980 ft 179 kts 150°
2026-04-20 21:57 27.43033 -98.82895 2746 ft 145 kts 139°
2026-04-20 21:58 27.42357 -98.82224 2574 ft 115 kts 130°
2026-04-20 21:58 27.41854 -98.81639 2409 ft 99 kts 131°
2026-04-20 21:58 27.41358 -98.81066 2335 ft 108 kts 131°
2026-04-20 21:58 27.40851 -98.80484 2190 ft 98 kts 131°
2026-04-20 21:59 27.40382 -98.79944 2054 ft 95 kts 134°
2026-04-20 21:59 27.39925 -98.79418 1930 ft 93 kts 134°
2026-04-20 21:59 27.39478 -98.78902 1810 ft 92 kts 134°
2026-04-20 21:59 27.39028 -98.78385 1693 ft 93 kts 134°
2026-04-20 22:00 27.38573 -98.77861 1571 ft 94 kts 135°
2026-04-20 22:00 27.38119 -98.77337 1448 ft 94 kts 134°
2026-04-20 22:00 27.37662 -98.76810 1323 ft 94 kts 134°
2026-04-20 22:00 27.37205 -98.76285 1198 ft 94 kts 134°
2026-04-20 22:01 27.36747 -98.75759 1071 ft 94 kts 134°
2026-04-20 22:01 27.36294 -98.75235 951 ft 93 kts 135°
2026-04-20 22:01 27.35842 -98.74711 823 ft 93 kts 135°
2026-04-20 22:01 27.35402 -98.74208 680 ft 85 kts 135°
2026-04-20 22:02 27.35073 -98.73829 665 ft 34 kts 134°
2026-04-20 22:02 27.35017 -98.73814 665 ft 15 kts 224°
2026-04-20 22:02 27.35019 -98.73875 665 ft 5 kts 313°
2026-04-20 22:02 27.35086 -98.73952 667 ft 14 kts 314°
2026-04-20 22:03 27.35164 -98.74041 669 ft 11 kts 315°
2026-04-20 22:03 27.35161 -98.74074 670 ft 5 kts 132°
2026-04-20 22:03 27.35133 -98.74096 670 ft 7 kts 310°
2026-04-20 22:03 27.35144 -98.74108 670 ft 1 kts 313°
2026-04-20 22:04 27.35146 -98.74109 670 ft 0 kts 313°